Temperature
26 23 22 22 23 24 25 26 26 27 29 29 28 27 27 26 26 25 24 24 23 23 23 23 22 22 21 21 20 20 20 19 19 18 18 18 18 18 18 18 18 18 18 18
23 22 23 24 25 26 26 26 26 27 29 29 28 27 27 26 25 25 24 23 23 23 22 22 22 21 21 21 20 20 20 19 19 19 18 18 18 18 18 18 18 18 17 18
23 23 26 26 26 26 26 26 27 28 28 28 28 26 25 25 25 25 24 24 23 23 22 22 21 21 21 20 20 20 19 19 19 18 18 18 17 17 17 17 17 17 17 18
23 25 26 26 26 26 25 27 28 28 26 24 26 23 24 24 24 23 23 23 23 23 22 22 22 21 21 20 20 19 19 19 19 18 18 18 18 18 18 18 17 17 17 17
23 25 26 26 27 28 26 28 28 28 26 24 24 23 23 23 23 23 23 23 23 23 23 22 22 22 21 20 20 19 19 19 18 18 18 18 18 18 18 17 17 17 17 17
24 26 27 27 28 28 28 28 25 22 21 23 24 24 23 22 23 23 23 23 23 23 23 22 22 21 20 20 20 19 19 18 18 18 18 18 18 18 17 17 17 17 17 17
24 25 27 28 27 28 27 23 21 22 20 21 22 23 22 23 24 24 23 23 23 23 22 22 21 21 20 20 19 19 19 18 18 18 18 18 17 17 17 17 17 17 17 17
23 23 25 27 26 25 25 22 21 22 22 21 23 23 23 24 25 25 24 23 23 22 22 22 22 21 21 20 20 19 19 18 18 18 18 17 17 17 17 17 17 17 17 17
22 22 26 27 28 26 25 23 22 20 22 22 22 23 23 24 23 23 23 23 22 22 22 22 22 21 21 20 20 19 19 18 18 18 18 17 17 17 17 17 17 17 17 17
22 23 25 27 28 27 26 24 20 20 21 21 22 22 22 23 22 22 22 22 22 22 22 22 21 21 21 20 20 19 19 18 18 18 17 17 17 17 17 17 17 17 17 17
22 22 23 25 26 25 26 25 21 19 19 20 21 21 23 22 22 22 22 22 21 21 22 22 21 21 20 20 19 19 18 18 18 18 17 17 17 17 17 17 17 17 17 17
22 21 21 22 24 26 25 24 21 21 21 19 20 21 23 22 22 22 22 22 22 22 22 22 21 21 20 20 19 19 18 18 18 18 17 17 17 17 17 17 17 17 17 17
22 20 21 22 23 25 26 24 22 20 19 19 20 21 22 22 22 23 22 22 21 21 21 21 21 20 20 20 19 19 18 18 18 18 17 17 17 17 17 17 17 17 17 17
23 19 21 22 22 24 25 26 24 21 20 20 21 21 22 22 21 21 22 21 21 21 21 21 20 20 20 19 19 19 18 18 18 18 17 17 17 17 17 17 17 17 17 17
21 21 22 22 24 26 26 26 25 23 21 21 22 21 22 21 21 22 22 21 20 20 20 20 20 20 19 19 19 18 18 18 18 18 17 17 17 17 17 17 17 17 17 17
19 21 22 23 25 25 26 26 26 25 24 23 23 22 21 22 22 21 21 21 20 20 20 20 20 20 19 19 19 18 18 18 18 17 17 17 17 17 17 16 16 16 16 16
18 19 20 21 23 24 24 24 25 25 24 23 22 21 21 20 20 20 21 21 20 20 20 20 20 20 19 19 18 18 18 18 17 17 17 17 16 16 16 16 16 16 16 16
19 18 17 19 22 23 22 23 24 24 23 22 22 20 20 20 20 21 21 21 20 20 20 20 20 19 19 19 18 18 18 17 17 17 17 16 16 16 16 16 16 15 15 15
18 18 18 17 20 21 23 23 23 23 21 21 20 20 19 20 20 19 20 21 20 20 20 19 19 19 19 18 18 18 17 17 17 17 17 16 16 16 16 15 15 15 15 15
18 17 17 18 20 20 21 22 23 22 19 20 20 19 19 20 18 17 19 20 20 20 19 19 18 18 18 17 17 17 17 17 16 16 16 16 16 16 15 15 15 15 14 14
18 17 17 18 19 19 20 21 22 21 19 19 19 19 19 18 18 18 18 19 19 19 18 18 18 18 17 17 17 17 16 16 16 16 16 15 15 15 15 15 15 14 14 14
16 16 17 16 18 18 19 20 19 18 19 19 19 20 19 18 18 18 18 18 18 18 17 17 17 17 16 16 16 16 16 15 15 15 15 15 15 14 14 14 14 14 14 13
15 15 15 16 16 17 18 19 19 19 19 19 19 19 19 18 17 17 17 17 17 17 17 16 16 16 16 16 16 16 15 15 15 14 14 14 14 14 14 13 13 13 13 13
15 14 14 15 16 16 17 18 19 19 19 19 19 19 19 18 17 16 16 16 16 16 16 15 15 15 15 15 15 15 14 14 14 14 14 13 13 13 13 13 13 12 12 12
14 14 14 14 15 16 17 17 18 18 19 18 18 18 18 17 16 16 16 15 15 15 15 15 15 15 14 14 14 14 14 13 13 13 13 13 12 12 12 12 12 12 12 11
13 14 14 14 15 14 15 16 17 18 18 17 17 17 17 17 16 16 15 15 14 14 14 14 14 14 13 13 13 13 13 13 13 13 12 12 12 11 11 11 11 11 11 10
Wind_Speed
3 3 6 10 9 8 6 8 12 11 5 4 6 7 7 10 11 12 12 12 13 11 9 11 12 12 11 11 11 11 11 10 9 7 6 6 5 4 4 5 9 10 10 10
2 8 13 9 8 8 9 10 10 8 4 2 4 4 4 10 13 15 16 14 13 10 9 10 10 11 11 11 11 11 11 11 10 8 6 4 4 4 4 4 7 9 9 10
10 8 6 9 11 10 10 7 6 6 6 6 3 4 1 1 5 9 12 12 13 14 14 12 11 10 11 11 12 11 11 11 9 8 6 4 4 3 3 3 4 6 9 9
9 11 10 9 11 10 10 9 6 3 4 4 3 1 5 3 3 7 8 10 12 13 12 12 12 11 11 11 10 10 10 10 9 10 9 9 7 6 6 5 4 5 7 8
9 8 10 11 12 10 10 9 3 1 2 3 4 2 6 1 4 7 9 11 13 14 14 13 13 12 11 10 10 9 9 9 9 9 10 9 6 5 4 4 5 6 5 7
9 8 7 10 11 9 7 2 8 7 6 3 4 3 5 5 8 9 9 11 13 13 13 12 10 9 8 9 9 9 9 9 9 9 9 9 9 7 6 6 6 5 4 4
7 10 8 6 7 6 2 6 4 5 5 6 4 3 8 8 9 11 12 12 12 13 12 12 12 11 10 11 11 10 10 8 8 9 8 9 9 8 8 7 7 6 5 4
6 8 8 6 9 8 6 11 8 6 5 5 3 3 6 5 7 9 11 12 12 11 11 12 13 12 12 12 11 10 10 8 8 8 8 7 7 6 6 7 6 6 5 5
8 8 8 8 7 10 7 7 11 8 3 1 5 4 6 4 7 10 11 11 11 11 11 11 11 11 11 11 10 10 10 8 8 8 7 6 7 6 6 6 5 5 4 5
9 6 8 7 3 5 10 9 7 6 5 4 4 3 5 4 7 10 10 10 10 9 10 10 10 10 9 9 8 8 8 8 7 7 7 6 6 6 6 5 6 6 5 5
11 7 8 4 6 9 5 6 6 6 7 7 4 7 7 11 11 12 12 11 11 10 10 10 9 9 9 8 8 8 7 6 6 6 5 5 5 5 5 5 6 6 5 5
11 8 8 9 8 9 10 10 10 7 5 6 5 7 5 8 9 11 11 11 10 11 11 10 10 9 9 9 8 8 7 7 6 6 5 5 4 4 5 5 5 5 5 5
10 8 4 8 7 2 5 7 9 8 6 6 5 6 1 5 6 9 12 12 11 10 10 10 9 9 9 9 8 8 7 6 5 5 5 4 4 4 4 4 4 4 4 4
9 7 9 11 9 5 4 5 7 8 6 6 8 7 4 7 9 10 13 14 13 12 12 10 9 8 8 8 8 8 7 7 6 5 5 4 4 4 4 4 4 4 4 4
6 6 6 7 6 3 3 5 6 7 10 10 9 11 12 12 12 12 13 14 14 13 12 11 9 8 8 7 7 7 7 6 6 6 5 4 4 3 3 3 3 3 3 4
4 4 3 1 2 1 2 4 4 6 7 7 7 6 7 8 9 11 12 15 15 14 13 11 9 9 8 8 8 7 6 6 6 6 5 4 4 3 3 3 4 4 4 3
3 4 4 2 3 3 4 5 4 4 5 9 9 9 9 11 13 13 13 14 13 12 12 11 9 8 7 7 7 7 6 6 6 5 5 4 4 4 4 4 4 4 4 4
3 3 4 2 2 4 9 5 2 1 1 2 6 8 12 13 10 7 8 11 11 11 11 10 8 7 6 6 6 6 6 6 6 5 5 4 5 4 4 4 4 4 4 4
5 6 3 4 3 4 6 4 1 3 4 2 8 11 11 12 10 6 4 8 10 10 9 8 7 7 7 6 6 7 6 6 6 5 4 4 5 5 5 4 4 4 5 5
4 6 5 4 4 5 5 6 1 7 3 3 8 12 11 9 7 4 4 9 11 11 10 9 7 8 8 7 8 8 7 6 5 4 4 4 4 5 5 5 4 4 5 6
3 3 4 4 3 4 5 6 4 5 5 2 6 10 9 5 6 9 9 11 12 12 10 10 10 8 7 7 8 8 7 6 5 5 6 6 5 5 5 5 5 6 6 7
2 2 3 4 4 6 5 3 4 5 4 5 6 8 10 13 13 12 12 12 12 12 10 9 10 8 6 7 8 8 6 5 6 7 7 7 6 6 6 7 6 6 7 8
1 3 4 5 5 4 1 4 4 6 7 5 6 9 14 15 13 13 10 11 11 11 9 8 9 8 6 6 7 8 5 6 7 8 8 7 8 7 6 6 6 6 6 6
3 2 2 2 2 2 4 6 6 7 9 8 10 12 14 15 13 12 10 8 9 10 9 8 10 9 7 6 6 6 6 6 8 9 8 7 8 8 8 7 6 6 5 6
3 3 2 1 1 5 7 6 7 9 11 12 11 11 13 15 14 12 10 9 8 8 8 9 9 8 7 6 6 6 6 7 9 9 9 8 8 9 9 9 8 6 5 4
2 2 3 3 3 3 0 2 5 10 9 9 12 11 11 12 13 12 10 8 9 9 8 9 9 9 7 7 7 6 6 7 9 8 8 7 7 8 8 9 10 15 13 15
Wind_Direction
230 133 226 231 216 218 261 286 291 291 280 142 163 175 182 166 158 158 162 162 165 168 160 152 154 154 152 153 156 159 160 160 155 155 160 158 165 165 165 179 181 180 181 177
311 247 233 233 250 255 265 278 290 302 327 85 166 201 191 168 171 167 166 168 164 156 149 152 154 158 160 162 163 162 164 164 165 166 163 157 156 161 168 182 188 189 185 178
211 239 229 230 254 263 271 253 263 285 342 14 79 354 335 183 138 157 161 162 159 163 159 160 165 167 163 165 169 168 165 164 164 159 145 133 120 124 162 189 190 195 188 182
240 248 257 252 250 240 264 255 253 301 18 315 73 278 284 211 158 161 162 159 163 163 162 167 167 167 170 171 166 160 162 163 163 161 162 164 171 180 194 188 187 193 190 183
238 231 226 239 244 234 235 248 255 330 77 358 5 113 279 180 181 191 178 173 171 170 168 173 172 170 170 167 164 162 161 167 169 170 171 174 182 187 182 176 183 197 200 190
251 265 230 227 244 234 229 34 28 43 63 346 267 160 260 219 198 190 181 178 175 171 167 166 164 155 160 161 161 163 168 175 177 175 177 181 182 182 178 185 191 200 201 200
285 281 264 248 256 268 140 91 30 356 8 258 265 173 240 235 188 174 170 171 169 164 160 157 156 158 164 165 167 167 171 176 178 179 181 184 186 186 187 190 196 198 199 206
219 269 254 224 197 205 187 143 158 193 221 276 318 219 259 257 168 147 149 155 156 160 165 166 167 167 169 169 169 168 171 173 177 182 184 186 183 186 194 194 190 196 200 203
197 245 263 239 203 168 166 173 172 147 177 301 292 301 332 34 111 121 137 150 155 161 166 168 164 163 163 166 169 169 170 171 177 182 182 184 186 188 193 191 187 189 197 202
181 243 278 271 221 205 172 163 111 131 170 241 277 257 214 204 157 140 150 160 154 153 160 160 158 159 159 161 159 159 164 174 179 182 184 184 185 188 186 184 189 190 193 200
183 209 282 330 199 202 172 148 130 141 158 164 222 261 219 194 177 163 168 166 155 155 160 160 157 153 151 150 152 157 163 162 169 177 179 177 183 187 186 188 190 189 189 192
182 172 242 257 249 206 182 180 153 163 212 168 172 258 251 183 172 158 159 157 155 158 156 152 149 145 145 150 156 160 165 166 172 174 172 178 178 177 181 189 191 184 186 185
165 152 210 313 326 272 190 184 168 150 141 159 171 252 292 132 140 142 144 148 157 155 148 144 146 148 153 157 159 163 166 169 168 165 166 174 176 172 179 179 172 169 174 172
145 134 174 205 216 218 217 209 175 142 165 200 205 207 208 163 157 150 145 148 153 153 149 147 150 155 158 160 160 163 168 169 166 163 165 170 175 172 170 159 150 155 166 169
117 148 175 201 212 195 214 227 205 182 182 182 208 193 199 186 167 158 148 145 148 150 149 152 154 155 154 156 158 160 165 167 166 162 163 170 171 166 153 149 152 155 158 168
64 128 143 261 306 353 288 272 243 214 187 178 168 201 198 160 144 142 146 151 154 156 157 157 153 148 151 155 156 153 156 159 149 152 161 161 148 140 142 150 150 147 150 146
37 90 101 255 321 29 290 257 247 237 204 170 183 199 159 144 153 158 155 155 158 155 150 149 148 150 149 150 150 150 151 142 140 147 149 147 146 148 156 158 147 146 147 137
117 86 118 133 65 228 245 258 205 166 352 155 145 152 153 149 143 138 144 146 141 138 140 138 142 139 130 125 129 136 130 130 139 143 144 144 145 149 149 144 146 145 135 131
141 131 111 117 166 266 301 327 47 108 13 38 130 133 127 120 94 73 98 122 130 129 125 125 130 123 114 112 115 115 114 116 119 128 136 142 142 140 138 140 143 141 129 117
81 108 120 124 150 215 258 298 325 97 44 354 124 135 136 120 122 163 140 117 113 109 113 112 108 104 103 101 102 101 100 102 104 109 116 120 131 138 139 140 134 121 115 116
25 60 132 156 187 247 271 308 34 115 196 220 133 137 132 123 140 138 121 108 109 108 107 107 103 101 105 107 105 102 98 94 93 90 90 88 94 108 115 114 112 112 114 112
182 164 182 154 180 242 304 43 117 180 163 136 113 110 108 109 109 111 111 107 105 104 100 103 104 96 91 101 110 108 102 98 92 89 87 83 81 88 99 104 104 104 110 108
149 181 195 185 202 243 301 126 144 138 125 123 123 121 119 115 115 110 107 107 104 103 102 102 104 97 83 82 100 107 102 102 100 95 90 86 81 78 81 94 105 103 103 108
329 16 86 62 32 34 63 78 82 103 110 113 120 121 119 118 116 110 110 108 106 105 109 108 105 103 91 81 88 101 105 105 105 101 94 87 85 78 70 68 74 91 98 106
297 1 37 69 43 43 31 55 92 93 95 103 109 117 123 123 122 121 118 114 109 109 112 110 110 108 102 94 92 97 102 105 103 99 97 91 86 86 78 69 57 68 64 103
256 191 165 201 219 139 199 24 98 101 102 115 121 119 120 123 124 122 119 116 113 111 110 108 108 108 106 101 97 92 97 110 114 108 102 100 98 95 96 94 77 57 68 72
Height
1501 1507 1513 1509 1507 1509 1509 1511 1511 1498 1484 1486 1492 1493 1492 1493 1495 1497 1500 1502 1505 1508 1512 1515 1518 1521 1523 1526 1528 1530 1532 1535 1538 1540 1543 1545 1548 1551 1554 1556 1559 1561 1563 1565
1506 1509 1501 1499 1501 1504 1507 1511 1507 1496 1484 1487 1493 1494 1490 1491 1492 1494 1497 1500 1503 1508 1512 1514 1517 1519 1521 1523 1525 1528 1530 1533 1535 1538 1541 1544 1547 1550 1552 1555 1557 1559 1561 1564
1508 1500 1494 1498 1501 1504 1504 1506 1503 1499 1491 1489 1494 1504 1498 1494 1494 1496 1497 1499 1502 1505 1508 1512 1515 1517 1519 1521 1523 1526 1528 1530 1533 1537 1540 1542 1545 1548 1550 1553 1555 1557 1560 1562
1501 1493 1494 1497 1498 1499 1507 1493 1492 1493 1503 1512 1504 1525 1509 1500 1499 1498 1499 1500 1502 1504 1508 1510 1513 1515 1518 1520 1522 1525 1527 1529 1532 1534 1537 1540 1542 1544 1547 1549 1552 1555 1558 1560
1497 1489 1491 1495 1491 1490 1494 1486 1488 1492 1501 1513 1510 1521 1516 1502 1503 1500 1499 1499 1500 1502 1505 1508 1511 1513 1517 1520 1522 1524 1526 1528 1530 1533 1535 1538 1540 1543 1545 1548 1550 1552 1555 1557
1490 1484 1484 1484 1481 1482 1482 1487 1495 1505 1515 1529 1516 1520 1520 1506 1499 1496 1496 1497 1499 1501 1503 1507 1511 1514 1516 1519 1521 1523 1525 1527 1529 1531 1533 1536 1538 1541 1543 1545 1547 1549 1552 1554
1494 1485 1479 1478 1483 1481 1484 1508 1531 1532 1542 1536 1514 1516 1514 1492 1488 1489 1491 1495 1498 1500 1503 1506 1510 1513 1515 1518 1520 1522 1524 1526 1528 1529 1531 1534 1536 1538 1540 1542 1544 1546 1548 1550
1504 1501 1480 1474 1480 1487 1489 1503 1532 1542 1544 1534 1515 1517 1503 1484 1483 1485 1488 1493 1497 1500 1503 1506 1508 1511 1514 1517 1519 1521 1523 1524 1526 1528 1529 1532 1534 1536 1537 1539 1541 1543 1545 1548
1500 1498 1473 1469 1468 1475 1488 1498 1500 1521 1526 1533 1526 1511 1497 1486 1487 1489 1492 1496 1498 1500 1504 1506 1508 1511 1514 1516 1518 1520 1522 1523 1525 1526 1528 1529 1531 1533 1535 1537 1539 1540 1543 1545
1483 1492 1476 1467 1467 1469 1474 1484 1506 1521 1535 1541 1528 1519 1513 1497 1494 1492 1494 1495 1498 1501 1504 1507 1509 1511 1514 1516 1518 1520 1521 1522 1523 1525 1526 1527 1529 1531 1533 1534 1536 1538 1540 1542
1475 1489 1483 1475 1475 1478 1478 1485 1497 1514 1521 1535 1538 1525 1491 1489 1488 1489 1491 1494 1497 1501 1504 1506 1509 1511 1514 1516 1518 1519 1520 1521 1522 1523 1525 1526 1527 1529 1530 1532 1534 1536 1537 1539
1467 1483 1492 1481 1466 1462 1468 1476 1491 1511 1516 1521 1528 1518 1481 1481 1484 1486 1490 1493 1496 1500 1503 1506 1508 1511 1513 1516 1517 1519 1520 1521 1522 1523 1524 1524 1526 1527 1529 1530 1532 1534 1536 1538
1462 1481 1496 1493 1483 1468 1468 1470 1478 1490 1505 1517 1523 1511 1481 1482 1484 1486 1489 1492 1496 1500 1503 1506 1508 1511 1513 1515 1517 1518 1519 1520 1521 1522 1523 1524 1525 1526 1527 1529 1530 1533 1534 1535
1451 1473 1485 1494 1488 1473 1470 1468 1470 1487 1504 1508 1505 1499 1488 1484 1484 1486 1488 1491 1495 1499 1502 1505 1508 1510 1512 1514 1515 1517 1518 1520 1521 1522 1522 1523 1524 1525 1526 1528 1529 1531 1532 1533
1451 1468 1468 1468 1464 1462 1464 1465 1466 1475 1483 1493 1491 1488 1482 1479 1480 1483 1486 1490 1494 1499 1501 1504 1507 1509 1511 1513 1515 1517 1518 1519 1520 1521 1522 1522 1523 1524 1525 1526 1528 1529 1530 1531
1456 1464 1465 1466 1460 1460 1463 1461 1461 1465 1469 1475 1478 1480 1472 1475 1479 1482 1485 1489 1492 1496 1499 1503 1506 1508 1510 1512 1514 1516 1517 1518 1519 1520 1521 1522 1523 1523 1524 1525 1526 1527 1528 1530
1461 1466 1475 1478 1466 1465 1475 1464 1461 1462 1461 1466 1475 1474 1471 1475 1478 1481 1483 1487 1490 1493 1497 1501 1504 1507 1509 1511 1513 1514 1516 1517 1518 1519 1520 1521 1521 1522 1522 1523 1524 1525 1526 1527
1461 1469 1478 1480 1475 1486 1474 1455 1454 1458 1460 1459 1461 1465 1468 1471 1476 1480 1483 1485 1489 1493 1497 1501 1504 1506 1508 1510 1513 1514 1516 1517 1518 1518 1519 1520 1520 1521 1521 1522 1522 1524 1525 1526
1455 1466 1477 1486 1487 1480 1465 1456 1456 1461 1468 1462 1462 1466 1470 1473 1478 1484 1486 1488 1490 1493 1497 1501 1504 1505 1507 1509 1512 1513 1515 1516 1516 1517 1518 1518 1519 1519 1520 1520 1521 1522 1523 1524
1455 1461 1475 1482 1485 1488 1471 1456 1453 1458 1475 1466 1463 1466 1470 1472 1484 1488 1487 1488 1491 1494 1497 1501 1504 1505 1507 1509 1511 1513 1514 1515 1515 1516 1516 1517 1518 1518 1519 1519 1520 1521 1522 1523
1467 1470 1475 1481 1483 1477 1462 1455 1454 1474 1478 1468 1466 1466 1469 1473 1477 1483 1487 1489 1492 1495 1498 1501 1503 1505 1507 1509 1510 1512 1512 1513 1514 1515 1515 1516 1517 1517 1518 1518 1519 1520 1521 1522
1472 1475 1477 1481 1485 1482 1460 1457 1464 1468 1465 1467 1467 1469 1471 1473 1478 1482 1486 1489 1492 1495 1499 1502 1504 1506 1508 1509 1510 1511 1511 1512 1513 1514 1515 1515 1516 1516 1517 1518 1518 1519 1520 1521
1470 1471 1473 1474 1475 1465 1460 1459 1461 1461 1464 1467 1468 1471 1473 1476 1481 1484 1488 1490 1493 1496 1499 1502 1503 1506 1508 1509 1509 1509 1510 1512 1512 1513 1514 1515 1515 1516 1517 1517 1518 1519 1520 1521
1468 1465 1468 1470 1467 1465 1463 1461 1462 1463 1464 1467 1470 1472 1474 1477 1482 1486 1490 1493 1495 1497 1500 1502 1503 1505 1507 1508 1509 1509 1510 1511 1512 1512 1513 1514 1515 1516 1517 1518 1519 1519 1520 1521
1469 1468 1469 1471 1468 1466 1466 1465 1465 1466 1467 1469 1472 1475 1477 1480 1484 1488 1492 1495 1497 1498 1501 1502 1504 1506 1507 1508 1509 1509 1510 1511 1512 1512 1513 1514 1515 1516 1517 1518 1520 1521 1522 1523
1469 1469 1471 1472 1468 1468 1470 1469 1469 1468 1470 1472 1473 1476 1479 1482 1484 1489 1492 1495 1497 1500 1502 1503 1504 1506 1507 1508 1509 1510 1511 1511 1512 1513 1514 1515 1516 1518 1519 1520 1521 1523 1524 1525